TimePST,TemperatureF,Dew PointF,Humidity,Sea Level PressureIn,VisibilityMPH,Wind Direction,Wind SpeedMPH,Gust SpeedMPH,PrecipitationIn,Events,Conditions,WindDirDegrees,DateUTC
12:53 AM,26.6,24.8,93,30.06,10.0,East,8.1,-,N/A,,Clear,80,2013-02-18 08:53:00
12:58 AM,26.6,23.0,86,30.12,10.0,East,5.8,-,0.00,,Clear,90,2013-02-18 08:58:00
1:18 AM,26.6,23.0,86,30.06,10.0,SSE,3.5,-,N/A,,Mostly Cloudy,150,2013-02-18 09:18:00
1:58 AM,26.6,23.2,87,30.12,10.0,SSE,2.3,-,0.00,,Mostly Cloudy,150,2013-02-18 09:58:00
1:59 AM,26.6,23.0,86,30.05,10.0,SSE,2.3,-,N/A,,Mostly Cloudy,150,2013-02-18 09:59:00
2:22 AM,26.6,23.0,86,30.05,10.0,SSE,2.3,-,N/A,,Partly Cloudy,150,2013-02-18 10:22:00
2:58 AM,26.8,23.7,88,30.11,10.0,SSE,2.3,-,0.00,,Clear,160,2013-02-18 10:58:00
3:16 AM,24.8,23.0,93,30.03,10.0,East,1.2,-,N/A,,Clear,80,2013-02-18 11:16:00
3:33 AM,24.8,23.0,93,30.03,10.0,SE,2.3,-,N/A,,Clear,140,2013-02-18 11:33:00
3:58 AM,26.1,22.5,86,30.09,10.0,SE,4.6,-,0.00,,Clear,130,2013-02-18 11:58:00
4:58 AM,27.0,23.4,86,30.09,10.0,East,3.5,-,N/A,,Clear,90,2013-02-18 12:58:00
5:58 AM,23.5,21.6,92,30.09,10.0,East,4.6,-,N/A,,Clear,80,2013-02-18 13:58:00
6:58 AM,25.7,23.7,92,30.07,10.0,ENE,8.1,-,N/A,,Partly Cloudy,60,2013-02-18 14:58:00
7:58 AM,27.7,25.5,92,30.05,10.0,NE,10.4,-,N/A,,Partly Cloudy,40,2013-02-18 15:58:00
8:58 AM,31.1,27.5,87,30.02,10.0,NE,8.1,-,N/A,,Scattered Clouds,40,2013-02-18 16:58:00
9:58 AM,34.5,28.6,79,30.01,10.0,NE,10.4,-,N/A,,Scattered Clouds,50,2013-02-18 17:58:00
10:21 AM,35.6,28.4,75,29.93,10.0,ENE,15.0,-,N/A,,Partly Cloudy,60,2013-02-18 18:21:00
10:36 AM,35.6,28.4,75,29.93,10.0,ENE,13.8,-,N/A,,Clear,70,2013-02-18 18:36:00
10:58 AM,35.8,27.9,73,30.00,10.0,ENE,11.5,-,0.00,,Scattered Clouds,60,2013-02-18 18:58:00
11:47 AM,37.4,28.4,70,29.91,10.0,East,11.5,-,N/A,,Overcast,90,2013-02-18 19:47:00
11:50 AM,37.4,28.4,70,29.91,10.0,East,12.7,-,N/A,,Overcast,80,2013-02-18 19:50:00
11:54 AM,37.4,28.4,70,29.91,10.0,East,9.2,-,N/A,,Overcast,80,2013-02-18 19:54:00
11:58 AM,37.9,28.4,69,29.98,10.0,East,11.5,-,0.00,,Overcast,90,2013-02-18 19:58:00
11:59 AM,37.4,28.4,70,29.90,10.0,East,10.4,-,N/A,,Overcast,80,2013-02-18 19:59:00
12:58 PM,39.0,28.2,65,29.95,10.0,East,10.4,-,0.00,,Overcast,100,2013-02-18 20:58:00
1:58 PM,39.6,25.3,57,29.94,10.0,SE,10.4,-,N/A,,Overcast,130,2013-02-18 21:58:00
2:58 PM,39.2,25.2,57,29.92,10.0,East,6.9,-,N/A,,Partly Cloudy,100,2013-02-18 22:58:00
3:58 PM,38.7,25.9,60,29.90,10.0,East,8.1,-,N/A,,Mostly Cloudy,80,2013-02-18 23:58:00
4:58 PM,36.9,27.0,67,29.88,10.0,East,5.8,-,N/A,,Mostly Cloudy,80,2013-02-19 00:58:00
5:58 PM,34.2,25.7,71,29.88,10.0,ENE,8.1,-,N/A,,Scattered Clouds,70,2013-02-19 01:58:00
6:58 PM,33.3,26.1,75,29.87,10.0,ENE,4.6,-,N/A,,Partly Cloudy,60,2013-02-19 02:58:00
7:58 PM,32.7,26.2,77,29.85,10.0,NE,6.9,-,N/A,,Mostly Cloudy,50,2013-02-19 03:58:00
8:58 PM,32.4,25.9,77,29.84,10.0,NE,3.5,-,N/A,,Overcast,50,2013-02-19 04:58:00
9:31 PM,32.0,26.6,80,29.76,10.0,ENE,3.5,-,N/A,,Overcast,70,2013-02-19 05:31:00
9:40 PM,32.0,24.8,75,29.76,10.0,East,1.2,-,N/A,,Overcast,90,2013-02-19 05:40:00
9:58 PM,34.0,26.1,73,29.83,10.0,SE,3.5,-,0.00,,Overcast,130,2013-02-19 05:58:00
10:04 PM,33.8,26.6,75,29.76,10.0,SE,4.6,-,N/A,,Overcast,130,2013-02-19 06:04:00
10:36 PM,32.0,28.4,87,29.76,10.0,SSE,5.8,-,N/A,,Mostly Cloudy,150,2013-02-19 06:36:00
10:58 PM,32.7,27.5,81,29.83,10.0,South,2.3,-,0.00,,Mostly Cloudy,180,2013-02-19 06:58:00
11:49 PM,32.0,26.6,80,29.74,10.0,East,4.6,-,N/A,,Overcast,90,2013-02-19 07:49:00
11:58 PM,31.8,27.3,83,29.80,10.0,ESE,5.8,-,0.00,,Overcast,110,2013-02-19 07:58:00